START_TIME,STEP,MOV.,M34,t_acc.,L5,t_acc.,L18,t_acc.,L14,t_acc.
1989-08-24T03:00:25.630 ,4,0,0.,12.0,0.,12.0,0.,12.0,0.,12.0
1989-08-24T03:00:37.630 ,4,0,0.,12.0,0.,12.0,0.,12.0,0.,12.0
1989-08-24T03:00:49.630 ,3,1,0.,12.0,0.,12.0,0.,12.0,0.,12.0
1989-08-24T03:01:01.630 ,3,1,0.,12.0,0.,12.0,0.,12.0,0.,12.0
1989-08-24T03:01:13.630 ,3,0,0.,12.0,0.,12.0,0.,12.0,0.,12.0
1989-08-24T03:01:25.630 ,3,0,0.,12.0,0.,12.0,0.,12.0,0.,12.0
1989-08-24T03:01:37.630 ,2,1,0.,12.0,0.,12.0,0.,12.0,0.,12.0
1989-08-24T03:01:49.630 ,2,1,0.,12.0,0.,12.0,0.,12.0,0.,12.0
1989-08-24T03:02:01.630 ,2,0,0.,12.0,0.,12.0,0.,12.0,0.,12.0
1989-08-24T03:02:13.630 ,2,0,0.,12.0,0.,12.0,0.,12.0,0.,12.0
1989-08-24T03:02:25.630 ,1,1,0.,12.0,0.,12.0,0.,12.0,0.,12.0
1989-08-24T03:02:37.630 ,1,1,0.,12.0,0.,12.0,0.,12.0,0.,12.0
1989-08-24T03:02:49.630 ,1,0,0.,12.0,0.,12.0,0.,12.0,0.,12.0
1989-08-24T03:03:01.630 ,1,0,0.,12.0,0.,12.0,0.,12.0,0.,12.0
1989-08-24T03:03:13.630 ,0,1,0.,12.0,0.,12.0,0.,12.0,0.,12.0
1989-08-24T03:03:25.630 ,0,1,0.,12.0,0.,12.0,0.,12.0,0.,12.0
1989-08-24T03:03:37.630 ,0,0,0.,12.0,0.,12.0,0.,12.0,0.,12.0
1989-08-24T03:03:49.630 ,0,0,0.,12.0,0.,12.0,0.,12.0,0.,12.0
1989-08-24T03:04:01.630 ,0,1,0.,12.0,0.,12.0,0.,12.0,0.,12.0
1989-08-24T03:04:13.630 ,0,1,0.,12.0,0.,12.0,0.,12.0,0.,12.0
1989-08-24T03:04:25.630 ,0,0,0.,12.0,0.,12.0,0.,12.0,0.,12.0
1989-08-24T03:04:37.630 ,0,0,0.,12.0,0.,12.0,0.,12.0,0.,12.0
1989-08-24T03:04:49.630 ,1,1,0.,12.0,0.,12.0,0.,12.0,0.,12.0
1989-08-24T03:05:01.630 ,1,1,0.,12.0,0.,12.0,0.,12.0,0.,12.0
1989-08-24T03:05:13.630 ,1,0,0.,12.0,0.,12.0,0.,12.0,0.,12.0
1989-08-24T03:05:25.630 ,1,0,0.,12.0,0.,12.0,0.,12.0,0.,12.0
1989-08-24T03:05:37.630 ,2,1,0.,12.0,0.,12.0,0.,12.0,0.,12.0
1989-08-24T03:05:49.630 ,2,1,0.,12.0,0.,12.0,0.,12.0,0.,12.0
1989-08-24T03:06:01.630 ,2,0,0.,12.0,0.,12.0,0.,12.0,0.,12.0
1989-08-24T03:06:13.630 ,2,0,0.,12.0,0.,12.0,0.,12.0,0.,12.0
1989-08-24T03:06:25.630 ,3,1,0.,12.0,0.,12.0,0.,12.0,0.,12.0
1989-08-24T03:06:37.630 ,3,1,0.,12.0,0.,12.0,0.,12.0,0.,12.0
1989-08-24T03:06:49.630 ,3,0,0.,12.0,0.,12.0,0.,12.0,0.,12.0
1989-08-24T03:07:01.630 ,3,0,0.,12.0,0.,12.0,0.,12.0,0.,12.0
1989-08-24T03:07:13.630 ,4,1,0.,12.0,0.,12.0,0.,12.0,0.,12.0
1989-08-24T03:07:25.630 ,4,1,0.,12.0,0.,12.0,0.,12.0,0.,12.0
1989-08-24T03:07:37.630 ,4,0,0.,12.0,0.,12.0,0.,12.0,0.,12.0
1989-08-24T03:07:49.630 ,4,0,0.,12.0,0.,12.0,0.,12.0,0.,12.0
1989-08-24T03:08:01.630 ,5,1,0.,12.0,0.,12.0,0.,12.0,0.,12.0
1989-08-24T03:08:13.630 ,5,1,0.,12.0,0.,12.0,0.,12.0,0.,12.0
1989-08-24T03:08:25.630 ,5,0,0.,12.0,0.,12.0,0.,12.0,0.,12.0
1989-08-24T03:08:37.630 ,5,0,0.,12.0,0.,12.0,0.,12.0,0.,12.0
1989-08-24T03:08:49.630 ,6,1,0.,12.0,0.,12.0,0.,12.0,0.,12.0
1989-08-24T03:09:01.630 ,6,1,0.,12.0,0.,12.0,0.,12.0,0.,12.0
1989-08-24T03:09:13.630 ,6,0,0.,12.0,0.,12.0,0.,12.0,0.,12.0
1989-08-24T03:09:25.630 ,6,0,0.,12.0,0.,12.0,0.,12.0,0.,12.0
1989-08-24T03:09:37.630 ,7,1,0.,12.0,0.,12.0,0.,12.0,0.,12.0
1989-08-24T03:09:49.630 ,7,1,0.,12.0,0.,12.0,0.,12.0,0.,12.0
1989-08-24T03:10:01.630 ,7,0,0.,12.0,0.,12.0,0.,12.0,0.,12.0
1989-08-24T03:10:13.630 ,7,0,0.,12.0,0.,12.0,0.,12.0,0.,12.0
1989-08-24T03:10:25.630 ,7,1,0.,12.0,0.,12.0,0.,12.0,0.,12.0
1989-08-24T03:10:37.630 ,7,1,0.,12.0,0.,12.0,0.,12.0,0.,12.0
1989-08-24T03:10:49.630 ,7,0,0.,12.0,0.,12.0,0.,12.0,0.,12.0
1989-08-24T03:11:01.630 ,7,0,0.,12.0,0.,12.0,0.,12.0,0.,12.0
1989-08-24T03:11:13.630 ,6,1,0.,12.0,0.,12.0,0.,12.0,0.,12.0
1989-08-24T03:11:25.630 ,6,1,0.,12.0,0.,12.0,0.,12.0,0.,12.0
1989-08-24T03:11:37.630 ,6,0,0.,12.0,0.,12.0,0.,12.0,0.,12.0
1989-08-24T03:11:49.630 ,6,0,0.,12.0,0.,12.0,0.,12.0,0.,12.0
1989-08-24T03:12:01.630 ,5,1,0.,12.0,0.,12.0,0.,12.0,0.,12.0
1989-08-24T03:12:13.630 ,5,1,0.,12.0,0.,12.0,0.,12.0,0.,12.0
1989-08-24T03:12:25.630 ,5,0,0.,12.0,0.,12.0,0.,12.0,0.,12.0
1989-08-24T03:12:37.630 ,5,0,0.,12.0,0.,12.0,0.,12.0,0.,12.0
1989-08-24T03:12:49.630 ,4,1,0.,12.0,0.,12.0,0.,12.0,0.,12.0
1989-08-24T03:13:01.630 ,4,1,0.,12.0,0.,12.0,0.,12.0,0.,12.0
1989-08-24T03:13:13.630 ,4,0,0.,12.0,0.,12.0,0.,12.0,0.,12.0
1989-08-24T03:13:25.630 ,4,0,0.,12.0,0.,12.0,0.,12.0,0.,12.0
1989-08-24T03:13:37.630 ,3,1,0.,12.0,0.,12.0,0.,12.0,0.,12.0
1989-08-24T03:13:49.630 ,3,1,0.,12.0,0.,12.0,0.,12.0,0.,12.0
1989-08-24T03:14:01.630 ,3,0,0.,12.0,0.,12.0,0.,12.0,0.,12.0
1989-08-24T03:14:13.630 ,3,0,0.,12.0,0.,12.0,0.,12.0,0.,12.0
1989-08-24T03:14:25.630 ,2,1,0.,12.0,0.,12.0,0.,12.0,0.,12.0
1989-08-24T03:14:37.630 ,2,1,0.,12.0,0.,12.0,0.,12.0,0.,12.0
1989-08-24T03:14:49.630 ,2,0,0.,12.0,0.,12.0,0.,12.0,0.,12.0
1989-08-24T03:15:01.630 ,2,0,0.,12.0,0.,12.0,0.,12.0,0.,12.0
1989-08-24T03:15:13.630 ,1,1,0.,12.0,0.,12.0,0.,12.0,0.,12.0
1989-08-24T03:15:25.630 ,1,1,0.,12.0,0.,12.0,0.,12.0,0.,12.0
1989-08-24T03:15:37.630 ,1,0,0.,12.0,0.,12.0,0.,12.0,0.,12.0
1989-08-24T03:15:49.630 ,1,0,0.,12.0,0.,12.0,0.,12.0,0.,12.0
1989-08-24T03:16:01.630 ,0,1,0.,12.0,0.,12.0,0.,12.0,0.,12.0
1989-08-24T03:16:13.630 ,0,1,0.,12.0,0.,12.0,0.,12.0,0.,12.0
1989-08-24T03:16:25.630 ,0,0,0.,12.0,0.,12.0,0.,12.0,0.,12.0
1989-08-24T03:16:37.630 ,0,0,0.,12.0,0.,12.0,0.,12.0,0.,12.0
1989-08-24T03:16:49.630 ,0,1,0.,12.0,0.,12.0,0.,12.0,0.,12.0
1989-08-24T03:17:01.630 ,0,1,0.,12.0,0.,12.0,0.,12.0,0.,12.0
1989-08-24T03:17:13.630 ,0,0,0.,12.0,0.,12.0,0.,12.0,0.,12.0
1989-08-24T03:17:25.630 ,0,0,0.,12.0,0.,12.0,0.,12.0,0.,12.0
1989-08-24T03:17:37.630 ,1,1,0.,12.0,0.,12.0,0.,12.0,0.,12.0
1989-08-24T03:17:49.630 ,1,1,0.,12.0,0.,12.0,0.,12.0,0.,12.0
1989-08-24T03:18:01.630 ,1,0,0.,12.0,0.,12.0,0.,12.0,0.,12.0
1989-08-24T03:18:13.630 ,1,0,0.,12.0,0.,12.0,0.,12.0,0.,12.0
1989-08-24T03:18:25.630 ,2,1,0.,12.0,0.,12.0,0.,12.0,0.,12.0
1989-08-24T03:18:37.630 ,2,1,0.,12.0,0.,12.0,0.,12.0,0.,12.0
1989-08-24T03:18:49.630 ,2,0,0.,12.0,0.,12.0,0.,12.0,0.,12.0
1989-08-24T03:19:01.630 ,2,0,0.,12.0,0.,12.0,0.,12.0,0.,12.0
1989-08-24T03:19:13.630 ,3,1,0.,12.0,0.,12.0,0.,12.0,0.,12.0
1989-08-24T03:19:25.630 ,3,1,0.,12.0,0.,12.0,0.,12.0,0.,12.0
1989-08-24T03:19:37.630 ,3,0,0.,12.0,0.,12.0,0.,12.0,0.,12.0
1989-08-24T03:19:49.630 ,3,0,0.,12.0,0.,12.0,0.,12.0,0.,12.0
1989-08-24T03:20:01.630 ,4,1,0.,12.0,0.,12.0,0.,12.0,0.,12.0
1989-08-24T03:20:13.630 ,4,1,0.,12.0,0.,12.0,0.,12.0,0.,12.0
1989-08-24T03:20:25.630 ,4,0,0.,12.0,0.,12.0,0.,12.0,0.,12.0
1989-08-24T03:20:37.630 ,4,0,0.,12.0,0.,12.0,0.,12.0,0.,12.0
1989-08-24T03:20:49.630 ,5,1,0.,12.0,0.,12.0,0.,12.0,0.,12.0
1989-08-24T03:21:01.630 ,5,1,0.,12.0,0.,12.0,0.,12.0,0.,12.0
1989-08-24T03:21:13.630 ,5,0,0.,12.0,0.,12.0,0.,12.0,0.,12.0
1989-08-24T03:21:25.630 ,5,0,0.,12.0,0.,12.0,0.,12.0,0.,12.0
1989-08-24T03:21:37.630 ,6,1,0.,12.0,0.,12.0,0.,12.0,0.,12.0
1989-08-24T03:21:49.630 ,6,1,0.,12.0,0.,12.0,0.,12.0,0.,12.0
1989-08-24T03:22:01.630 ,6,0,0.,12.0,0.,12.0,0.,12.0,0.,12.0
1989-08-24T03:22:13.630 ,6,0,0.,12.0,0.,12.0,0.,12.0,0.,12.0
1989-08-24T03:22:25.630 ,7,1,0.,12.0,0.,12.0,0.,12.0,0.,12.0
1989-08-24T03:22:37.630 ,7,1,0.,12.0,0.,12.0,0.,12.0,0.,12.0
1989-08-24T03:22:49.630 ,7,0,0.,12.0,0.,12.0,0.,12.0,0.,12.0
1989-08-24T03:23:01.630 ,7,0,0.,12.0,0.,12.0,0.,12.0,0.,12.0
1989-08-24T03:23:13.630 ,7,1,0.,12.0,0.,12.0,0.,12.0,0.,12.0
1989-08-24T03:23:25.630 ,7,1,0.,12.0,0.,12.0,0.,12.0,0.,12.0
1989-08-24T03:23:37.630 ,7,0,0.,12.0,0.,12.0,0.,12.0,0.,12.0
1989-08-24T03:23:49.630 ,7,0,0.,12.0,0.,12.0,0.,12.0,0.,12.0
1989-08-24T03:24:01.630 ,6,1,0.,12.0,0.,12.0,0.,12.0,0.,12.0
1989-08-24T03:24:13.630 ,6,1,0.,12.0,0.,12.0,0.,12.0,0.,12.0
1989-08-24T03:24:25.630 ,6,0,0.,12.0,0.,12.0,0.,12.0,0.,12.0
1989-08-24T03:24:37.630 ,6,0,0.,12.0,0.,12.0,0.,12.0,0.,12.0
1989-08-24T03:24:49.630 ,5,1,0.,12.0,0.,12.0,0.,12.0,0.,12.0
1989-08-24T03:25:01.630 ,5,1,0.,12.0,0.,12.0,0.,12.0,0.,12.0
1989-08-24T03:25:13.630 ,5,0,0.,12.0,0.,12.0,0.,12.0,0.,12.0
1989-08-24T03:25:25.630 ,5,0,0.,12.0,0.,12.0,0.,12.0,0.,12.0
1989-08-24T03:25:37.630 ,4,1,0.,12.0,0.,12.0,0.,12.0,0.,12.0
1989-08-24T03:25:49.630 ,4,1,0.,12.0,0.,12.0,0.,12.0,0.,12.0
1989-08-24T03:26:01.630 ,4,0,0.,12.0,0.,12.0,0.,12.0,0.,12.0
1989-08-24T03:26:13.630 ,4,0,0.,12.0,0.,12.0,0.,12.0,0.,12.0
1989-08-24T03:26:25.630 ,3,1,0.,12.0,0.,12.0,0.,12.0,0.,12.0
1989-08-24T03:26:37.630 ,3,1,0.,12.0,0.,12.0,0.,12.0,0.,12.0
1989-08-24T03:26:49.630 ,3,0,0.,12.0,0.,12.0,0.,12.0,0.,12.0
1989-08-24T03:27:01.630 ,3,0,0.,12.0,0.,12.0,0.,12.0,0.,12.0
1989-08-24T03:27:13.630 ,2,1,0.,12.0,0.,12.0,0.,12.0,0.,12.0
1989-08-24T03:27:25.630 ,2,1,0.,12.0,0.,12.0,0.,12.0,0.,12.0
1989-08-24T03:27:37.630 ,2,0,0.,12.0,0.,12.0,0.,12.0,0.,12.0
1989-08-24T03:27:49.630 ,2,0,0.,12.0,0.,12.0,0.,12.0,0.,12.0
1989-08-24T03:28:01.630 ,1,1,0.,12.0,0.,12.0,0.,12.0,0.,12.0
1989-08-24T03:28:13.630 ,1,1,0.,12.0,0.,12.0,0.,12.0,0.,12.0
1989-08-24T03:28:25.630 ,1,0,0.,12.0,0.,12.0,0.,12.0,0.,12.0
1989-08-24T03:28:37.630 ,1,0,0.,12.0,0.,12.0,0.,12.0,0.,12.0
1989-08-24T03:28:49.630 ,0,1,0.,12.0,0.,12.0,0.,12.0,0.,12.0
1989-08-24T03:29:01.630 ,0,1,0.,12.0,0.,12.0,0.,12.0,0.,12.0
1989-08-24T03:29:13.630 ,0,0,0.,12.0,0.,12.0,0.,12.0,0.,12.0
1989-08-24T03:29:25.630 ,0,0,0.,12.0,0.,12.0,0.,12.0,0.,12.0
1989-08-24T03:29:37.630 ,0,1,0.,12.0,0.,12.0,0.,12.0,0.,12.0
1989-08-24T03:29:49.630 ,0,1,0.,12.0,0.,12.0,0.,12.0,0.,12.0
1989-08-24T03:30:01.630 ,0,0,0.,12.0,0.,12.0,0.,12.0,0.,12.0
1989-08-24T03:30:13.630 ,0,0,0.,12.0,0.,12.0,0.,12.0,0.,12.0
1989-08-24T03:30:25.630 ,1,1,0.,12.0,0.,12.0,0.,12.0,0.,12.0
1989-08-24T03:30:37.630 ,1,1,0.,12.0,0.,12.0,0.,12.0,0.,12.0
1989-08-24T03:30:49.630 ,1,0,0.,12.0,0.,12.0,0.,12.0,0.,12.0
1989-08-24T03:31:01.630 ,1,0,0.,12.0,0.,12.0,0.,12.0,0.,12.0
1989-08-24T03:31:13.630 ,2,1,0.,12.0,0.,12.0,0.,12.0,0.,12.0
1989-08-24T03:31:25.630 ,2,1,0.,12.0,0.,12.0,0.,12.0,0.,12.0
1989-08-24T03:31:37.630 ,2,0,0.,12.0,0.,12.0,0.,12.0,0.,12.0
1989-08-24T03:31:49.630 ,2,0,0.,12.0,0.,12.0,0.,12.0,0.,12.0
1989-08-24T03:32:01.630 ,3,1,0.,12.0,0.,12.0,0.,12.0,0.,12.0
1989-08-24T03:32:13.630 ,3,1,0.,12.0,0.,12.0,0.,12.0,0.,12.0
1989-08-24T03:32:25.630 ,3,0,0.,12.0,0.,12.0,0.,12.0,0.,12.0
1989-08-24T03:32:37.630 ,3,0,0.,12.0,0.,12.0,0.,12.0,0.,12.0
1989-08-24T03:32:49.630 ,4,1,0.,12.0,0.,12.0,0.,12.0,0.,12.0
1989-08-24T03:33:01.630 ,4,1,0.,12.0,0.,12.0,0.,12.0,0.,12.0
1989-08-24T03:33:13.630 ,4,0,0.,12.0,0.,12.0,0.,12.0,0.,12.0
1989-08-24T03:33:25.630 ,4,0,0.,12.0,0.,12.0,0.,12.0,0.,12.0
1989-08-24T03:33:37.630 ,5,1,0.,12.0,0.,12.0,0.,12.0,0.,12.0
1989-08-24T03:33:49.630 ,5,1,0.,12.0,0.,12.0,0.,12.0,0.,12.0
1989-08-24T03:34:01.630 ,5,0,0.,12.0,0.,12.0,0.,12.0,0.,12.0
1989-08-24T03:34:13.630 ,5,0,0.,12.0,0.,12.0,0.,12.0,0.,12.0
1989-08-24T03:34:25.630 ,6,1,0.,12.0,0.,12.0,0.,12.0,0.,12.0
1989-08-24T03:34:37.630 ,6,1,0.,12.0,0.,12.0,0.,12.0,0.,12.0
1989-08-24T03:34:49.630 ,6,0,0.,12.0,0.,12.0,0.,12.0,0.,12.0
1989-08-24T03:35:01.630 ,6,0,0.,12.0,0.,12.0,0.,12.0,0.,12.0
1989-08-24T03:35:13.620 ,7,1,0.,12.0,0.,12.0,0.,12.0,0.,12.0
1989-08-24T03:35:25.620 ,7,1,0.,12.0,0.,12.0,0.,12.0,0.,12.0
1989-08-24T03:35:37.620 ,7,0,0.,12.0,0.,12.0,0.,12.0,0.,12.0
1989-08-24T03:35:49.620 ,7,0,0.,12.0,0.,12.0,0.,12.0,0.,12.0
1989-08-24T03:36:01.620 ,7,1,0.,12.0,0.,12.0,0.,12.0,0.,12.0
1989-08-24T03:36:13.620 ,7,1,0.,12.0,0.,12.0,0.,12.0,0.,12.0
1989-08-24T03:36:25.620 ,7,0,0.,12.0,0.,12.0,0.,12.0,0.,12.0
1989-08-24T03:36:37.620 ,7,0,0.,12.0,0.,12.0,0.,12.0,0.,12.0
1989-08-24T03:36:49.620 ,6,1,0.,12.0,0.,12.0,0.,12.0,0.,12.0
1989-08-24T03:37:01.620 ,6,1,0.,12.0,0.,12.0,0.,12.0,0.,12.0
1989-08-24T03:37:13.620 ,6,0,0.,12.0,0.,12.0,0.,12.0,0.,12.0
1989-08-24T03:37:25.620 ,6,0,0.,12.0,0.,12.0,0.,12.0,0.,12.0
1989-08-24T03:37:37.620 ,5,1,0.,12.0,0.,12.0,0.,12.0,0.,12.0
1989-08-24T03:37:49.620 ,5,1,0.,12.0,0.,12.0,0.,12.0,0.,12.0
1989-08-24T03:38:01.620 ,5,0,0.,12.0,0.,12.0,0.,12.0,0.,12.0
1989-08-24T03:38:13.620 ,5,0,0.,12.0,0.,12.0,0.,12.0,0.,12.0
1989-08-24T03:38:25.620 ,4,1,0.,12.0,0.,12.0,0.,12.0,0.,12.0
1989-08-24T03:38:37.620 ,4,1,0.,12.0,0.,12.0,0.,12.0,0.,12.0
1989-08-24T03:38:49.620 ,4,0,0.,12.0,0.,12.0,0.,12.0,0.,12.0
1989-08-24T03:39:01.620 ,4,0,0.,12.0,0.,12.0,0.,12.0,0.,12.0
1989-08-24T03:39:13.620 ,3,1,0.,12.0,0.,12.0,0.,12.0,0.,12.0
1989-08-24T03:39:25.620 ,3,1,0.,12.0,0.,12.0,0.,12.0,0.,12.0
1989-08-24T03:39:37.620 ,3,0,0.,12.0,0.,12.0,0.,12.0,0.,12.0
1989-08-24T03:39:49.620 ,3,0,0.,12.0,0.,12.0,0.,12.0,0.,12.0
1989-08-24T03:40:01.620 ,2,1,0.,12.0,0.,12.0,0.,12.0,0.,12.0
1989-08-24T03:40:13.620 ,2,1,0.,12.0,0.,12.0,0.,12.0,0.,12.0
1989-08-24T03:40:25.620 ,2,0,0.,12.0,0.,12.0,0.,12.0,0.,12.0
1989-08-24T03:40:37.620 ,2,0,0.,12.0,0.,12.0,0.,12.0,0.,12.0
1989-08-24T03:40:49.620 ,1,1,0.,12.0,0.,12.0,0.,12.0,0.,12.0
1989-08-24T03:41:01.620 ,1,1,0.,12.0,0.,12.0,0.,12.0,0.,12.0
1989-08-24T03:41:13.620 ,1,0,0.,12.0,0.,12.0,0.,12.0,0.,12.0
1989-08-24T03:41:25.620 ,1,0,0.,12.0,0.,12.0,0.,12.0,0.,12.0
1989-08-24T03:41:37.620 ,0,1,0.,12.0,0.,12.0,0.,12.0,0.,12.0
1989-08-24T03:41:49.620 ,0,1,0.,12.0,0.,12.0,0.,12.0,0.,12.0
1989-08-24T03:42:01.620 ,0,0,0.,12.0,0.,12.0,0.,12.0,0.,12.0
1989-08-24T03:42:13.620 ,0,0,0.,12.0,0.,12.0,0.,12.0,0.,12.0
1989-08-24T03:42:25.620 ,0,1,0.,12.0,0.,12.0,0.,12.0,0.,12.0
1989-08-24T03:42:37.620 ,0,1,0.,12.0,0.,12.0,0.,12.0,0.,12.0
1989-08-24T03:42:49.620 ,0,0,0.,12.0,0.,12.0,0.,12.0,0.,12.0
1989-08-24T03:43:01.620 ,0,0,0.,12.0,0.,12.0,0.,12.0,0.,12.0
1989-08-24T03:43:13.620 ,1,1,0.,12.0,0.,12.0,0.,12.0,0.,12.0
1989-08-24T03:43:25.620 ,1,1,0.,12.0,0.,12.0,0.,12.0,0.,12.0
1989-08-24T03:43:37.620 ,1,0,0.,12.0,0.,12.0,0.,12.0,0.,12.0
1989-08-24T03:43:49.620 ,1,0,0.,12.0,0.,12.0,0.,12.0,0.,12.0
1989-08-24T03:44:01.620 ,0,0,0.,12.0,0.,12.0,0.,12.0,0.,12.0
1989-08-24T03:44:13.620 ,0,0,,0,,0,,0,,0
1989-08-24T03:44:25.620 ,0,0,,0,,0,,0,,0
1989-08-24T03:44:37.620 ,0,0,,0,,0,,0,,0
1989-08-24T03:44:07.020 ,0,0,,0,,0,,0,,0
1989-08-24T03:44:19.020 ,0,0,,0,,0,,0,,0
1989-08-24T03:44:25.620 ,0,0,,0,,0,,0,,0
1989-08-24T03:44:37.620 ,0,0,,0,,0,,0,,0
1989-08-24T03:44:07.020 ,0,0,,0,,0,,0,,0
1989-08-24T03:44:19.020 ,0,0,,0,,0,,0,,0
1989-08-24T03:44:25.620 ,0,0,,0,,0,,0,,0
1989-08-24T03:44:37.620 ,0,0,,0,,0,,0,,0
1989-08-24T03:44:07.620 ,2,1,,0,,0,,0,,0
1989-08-24T03:44:19.620 ,2,1,0.,12.0,0.,12.0,0.,12.0,0.,12.0
1989-08-24T03:44:25.620 ,2,0,0.,12.0,0.,12.0,0.,12.0,0.,12.0
1989-08-24T03:44:37.620 ,2,0,0.,12.0,0.,12.0,0.,12.0,0.,12.0
1989-08-24T03:44:49.620 ,3,1,0.,12.0,0.,12.0,0.,12.0,0.,12.0
1989-08-24T03:45:01.620 ,3,1,0.,12.0,0.,12.0,0.,12.0,0.,12.0
1989-08-24T03:45:13.620 ,3,0,0.,12.0,0.,12.0,0.,12.0,0.,12.0
1989-08-24T03:45:25.620 ,3,0,0.,12.0,0.,12.0,0.,12.0,0.,12.0
1989-08-24T03:45:37.620 ,4,1,0.,12.0,0.,12.0,0.,12.0,0.,12.0
1989-08-24T03:45:49.620 ,4,1,0.,12.0,0.,12.0,0.,12.0,0.,12.0
1989-08-24T03:46:01.620 ,4,0,0.,12.0,0.,12.0,0.,12.0,0.,12.0
1989-08-24T03:46:13.620 ,4,0,0.,12.0,0.,12.0,0.,12.0,0.,12.0
1989-08-24T03:46:25.620 ,5,1,0.,12.0,0.,12.0,0.,12.0,0.,12.0
1989-08-24T03:46:37.620 ,5,1,0.,12.0,0.,12.0,0.,12.0,0.,12.0
1989-08-24T03:46:49.620 ,5,0,0.,12.0,0.,12.0,0.,12.0,0.,12.0
1989-08-24T03:47:01.620 ,5,0,0.,12.0,0.,12.0,0.,12.0,0.,12.0
1989-08-24T03:47:13.620 ,6,1,0.,12.0,0.,12.0,0.,12.0,0.,12.0
1989-08-24T03:47:25.620 ,6,1,0.,12.0,0.,12.0,0.,12.0,0.,12.0
1989-08-24T03:47:37.620 ,6,0,0.,12.0,0.,12.0,0.,12.0,0.,12.0
1989-08-24T03:47:49.620 ,6,0,0.,12.0,0.,12.0,0.,12.0,0.,12.0
1989-08-24T03:48:01.620 ,7,1,0.,12.0,0.,12.0,0.,12.0,0.,12.0
1989-08-24T03:48:13.620 ,7,1,0.,12.0,0.,12.0,0.,12.0,0.,12.0
1989-08-24T03:48:25.620 ,7,0,0.,12.0,0.,12.0,0.,12.0,0.,12.0
1989-08-24T03:48:37.620 ,7,0,0.,12.0,0.,12.0,0.,12.0,0.,12.0
1989-08-24T03:48:49.620 ,7,1,0.,12.0,0.,12.0,0.,12.0,0.,12.0
1989-08-24T03:49:01.620 ,7,1,0.,12.0,0.,12.0,0.,12.0,0.,12.0
1989-08-24T03:49:13.620 ,7,0,0.,12.0,0.,12.0,0.,12.0,0.,12.0
1989-08-24T03:49:25.620 ,7,0,0.,12.0,0.,12.0,0.,12.0,0.,12.0
1989-08-24T03:49:37.620 ,6,1,0.,12.0,0.,12.0,0.,12.0,0.,12.0
1989-08-24T03:49:49.620 ,6,1,0.,12.0,0.,12.0,0.,12.0,0.,12.0
1989-08-24T03:50:01.620 ,6,0,0.,12.0,0.,12.0,0.,12.0,0.,12.0
1989-08-24T03:50:13.620 ,6,0,0.,12.0,0.,12.0,0.,12.0,0.,12.0
1989-08-24T03:50:25.620 ,5,1,0.,12.0,0.,12.0,0.,12.0,0.,12.0
1989-08-24T03:50:37.620 ,5,1,0.,12.0,0.,12.0,0.,12.0,0.,12.0
1989-08-24T03:50:49.620 ,5,0,0.,12.0,0.,12.0,0.,12.0,0.,12.0
1989-08-24T03:51:01.620 ,5,0,0.,12.0,0.,12.0,0.,12.0,0.,12.0
1989-08-24T03:51:13.620 ,4,1,0.,12.0,0.,12.0,0.,12.0,0.,12.0
1989-08-24T03:51:25.620 ,4,1,0.,12.0,0.,12.0,0.,12.0,0.,12.0
1989-08-24T03:51:37.620 ,4,0,0.,12.0,0.,12.0,0.,12.0,0.,12.0
1989-08-24T03:51:49.620 ,4,0,0.,12.0,0.,12.0,0.,12.0,0.,12.0
1989-08-24T03:52:01.620 ,3,1,0.,12.0,0.,12.0,0.,12.0,0.,12.0
1989-08-24T03:52:13.620 ,3,1,0.,12.0,0.,12.0,0.,12.0,0.,12.0
1989-08-24T03:52:25.620 ,3,0,0.,12.0,0.,12.0,0.,12.0,0.,12.0
1989-08-24T03:52:37.620 ,3,0,0.,12.0,0.,12.0,0.,12.0,0.,12.0
1989-08-24T03:52:49.620 ,2,1,0.,12.0,0.,12.0,0.,12.0,0.,12.0
1989-08-24T03:53:01.620 ,2,1,0.,12.0,0.,12.0,0.,12.0,0.,12.0
1989-08-24T03:53:13.620 ,2,0,0.,12.0,0.,12.0,0.,12.0,0.,12.0
1989-08-24T03:53:25.620 ,2,0,0.,12.0,0.,12.0,0.,12.0,0.,12.0
1989-08-24T03:53:37.620 ,1,1,0.,12.0,0.,12.0,0.,12.0,0.,12.0
1989-08-24T03:53:49.620 ,1,1,0.,12.0,0.,12.0,0.,12.0,0.,12.0
1989-08-24T03:54:01.620 ,1,0,0.,12.0,0.,12.0,0.,12.0,0.,12.0
1989-08-24T03:54:13.620 ,1,0,0.,12.0,0.,12.0,0.,12.0,0.,12.0
1989-08-24T03:54:25.620 ,0,1,0.,12.0,0.,12.0,0.,12.0,0.,12.0
1989-08-24T03:54:37.620 ,0,1,0.,12.0,0.,12.0,0.,12.0,0.,12.0
1989-08-24T03:54:49.620 ,0,0,0.,12.0,0.,12.0,0.,12.0,0.,12.0
1989-08-24T03:55:01.620 ,0,0,0.,12.0,0.,12.0,0.,12.0,0.,12.0
1989-08-24T03:55:13.620 ,0,1,0.,12.0,0.,12.0,0.,12.0,0.,12.0
1989-08-24T03:55:25.620 ,0,1,0.,12.0,0.,12.0,0.,12.0,0.,12.0
1989-08-24T03:55:37.620 ,0,0,0.,12.0,0.,12.0,0.,12.0,0.,12.0
1989-08-24T03:55:49.620 ,0,0,0.,12.0,0.,12.0,0.,12.0,0.,12.0
1989-08-24T03:56:01.620 ,1,1,0.,12.0,0.,12.0,0.,12.0,0.,12.0
1989-08-24T03:56:13.620 ,1,1,0.,12.0,0.,12.0,0.,12.0,0.,12.0
1989-08-24T03:56:25.620 ,1,0,0.,12.0,0.,12.0,0.,12.0,0.,12.0
1989-08-24T03:56:37.620 ,1,0,0.,12.0,0.,12.0,0.,12.0,0.,12.0
1989-08-24T03:56:49.620 ,2,1,0.,12.0,0.,12.0,0.,12.0,0.,12.0
1989-08-24T03:57:01.620 ,2,1,0.,12.0,0.,12.0,0.,12.0,0.,12.0
1989-08-24T03:57:13.620 ,2,0,0.,12.0,0.,12.0,0.,12.0,0.,12.0
1989-08-24T03:57:25.620 ,2,0,0.,12.0,0.,12.0,0.,12.0,0.,12.0
1989-08-24T03:57:37.620 ,3,1,0.,12.0,0.,12.0,0.,12.0,0.,12.0
1989-08-24T03:57:49.620 ,3,1,0.,12.0,0.,12.0,0.,12.0,0.,12.0
1989-08-24T03:58:01.620 ,3,0,0.,12.0,0.,12.0,0.,12.0,0.,12.0
1989-08-24T03:58:13.620 ,3,0,0.,12.0,0.,12.0,0.,12.0,0.,12.0
1989-08-24T03:58:25.620 ,4,1,0.,12.0,0.,12.0,0.,12.0,0.,12.0
1989-08-24T03:58:37.620 ,4,1,0.,12.0,0.,12.0,0.,12.0,0.,12.0
1989-08-24T03:58:49.620 ,4,0,0.,12.0,0.,12.0,0.,12.0,0.,12.0
1989-08-24T03:59:01.620 ,4,0,0.,12.0,0.,12.0,0.,12.0,0.,12.0
1989-08-24T03:59:13.620 ,5,1,0.,12.0,0.,12.0,0.,12.0,0.,12.0
1989-08-24T03:59:25.620 ,5,1,0.,12.0,0.,12.0,0.,12.0,0.,12.0
1989-08-24T03:59:37.620 ,5,0,0.,12.0,0.,12.0,0.,12.0,0.,12.0
1989-08-24T03:59:49.620 ,5,0,0.,12.0,0.,12.0,0.,12.0,0.,12.0
1989-08-24T04:00:01.620 ,6,1,0.,12.0,0.,12.0,0.,12.0,0.,12.0
1989-08-24T04:00:13.620 ,6,1,0.,12.0,0.,12.0,0.,12.0,0.,12.0
1989-08-24T04:00:25.620 ,6,0,0.,12.0,0.,12.0,0.,12.0,0.,12.0
1989-08-24T04:00:37.620 ,6,0,0.,12.0,0.,12.0,0.,12.0,0.,12.0
1989-08-24T04:00:49.620 ,7,1,0.,12.0,0.,12.0,0.,12.0,0.,12.0
1989-08-24T04:01:01.620 ,7,1,0.,12.0,0.,12.0,0.,12.0,0.,12.0
1989-08-24T04:01:13.620 ,7,0,0.,12.0,0.,12.0,0.,12.0,0.,12.0
1989-08-24T04:01:25.620 ,7,0,0.,12.0,0.,12.0,0.,12.0,0.,12.0
1989-08-24T04:01:37.620 ,7,1,0.,12.0,0.,12.0,0.,12.0,0.,12.0
1989-08-24T04:01:49.620 ,7,1,0.,12.0,0.,12.0,0.,12.0,0.,12.0
1989-08-24T04:02:01.620 ,7,0,0.,12.0,0.,12.0,0.,12.0,0.,12.0
1989-08-24T04:02:13.620 ,7,0,0.,12.0,0.,12.0,0.,12.0,0.,12.0
1989-08-24T04:02:25.620 ,6,1,0.,12.0,0.,12.0,0.,12.0,0.,12.0
1989-08-24T04:02:37.620 ,6,1,0.,12.0,0.,12.0,0.,12.0,0.,12.0
1989-08-24T04:02:49.620 ,6,0,0.,12.0,0.,12.0,0.,12.0,0.,12.0
1989-08-24T04:03:01.620 ,6,0,0.,12.0,0.,12.0,0.,12.0,0.,12.0
1989-08-24T04:03:13.620 ,5,1,0.,12.0,0.,12.0,0.,12.0,0.,12.0
1989-08-24T04:03:25.620 ,5,1,0.,12.0,0.,12.0,0.,12.0,0.,12.0
1989-08-24T04:03:37.620 ,5,0,0.,12.0,0.,12.0,0.,12.0,0.,12.0
1989-08-24T04:03:49.620 ,5,0,0.,12.0,0.,12.0,0.,12.0,0.,12.0
1989-08-24T04:04:01.620 ,4,1,0.,12.0,0.,12.0,0.,12.0,0.,12.0
1989-08-24T04:04:13.620 ,4,1,0.,12.0,0.,12.0,0.,12.0,0.,12.0
1989-08-24T04:04:25.620 ,4,0,0.,12.0,0.,12.0,0.,12.0,0.,12.0
1989-08-24T04:04:37.620 ,4,0,0.,12.0,0.,12.0,0.,12.0,0.,12.0
1989-08-24T04:04:49.620 ,3,1,0.,12.0,0.,12.0,0.,12.0,0.,12.0
1989-08-24T04:05:01.620 ,3,1,0.,12.0,0.,12.0,0.,12.0,0.,12.0
1989-08-24T04:05:13.620 ,3,0,0.,12.0,0.,12.0,0.,12.0,0.,12.0
1989-08-24T04:05:25.620 ,3,0,0.,12.0,0.,12.0,0.,12.0,0.,12.0
1989-08-24T04:05:37.620 ,2,1,0.,12.0,0.,12.0,0.,12.0,0.,12.0
1989-08-24T04:05:49.620 ,2,1,0.,12.0,0.,12.0,0.,12.0,0.,12.0
1989-08-24T04:06:01.620 ,2,0,0.,12.0,0.,12.0,0.,12.0,0.,12.0
1989-08-24T04:06:13.620 ,2,0,0.,12.0,0.,12.0,0.,12.0,0.,12.0
1989-08-24T04:06:25.620 ,1,1,0.,12.0,0.,12.0,0.,12.0,0.,12.0
1989-08-24T04:06:37.620 ,1,1,0.,12.0,0.,12.0,0.,12.0,0.,12.0
1989-08-24T04:06:49.620 ,1,0,0.,12.0,0.,12.0,0.,12.0,0.,12.0
1989-08-24T04:07:01.620 ,1,0,0.,12.0,0.,12.0,0.,12.0,0.,12.0
1989-08-24T04:07:13.620 ,0,1,0.,12.0,0.,12.0,0.,12.0,0.,12.0
1989-08-24T04:07:25.620 ,0,1,0.,12.0,0.,12.0,0.,12.0,0.,12.0
1989-08-24T04:07:37.620 ,0,0,0.,12.0,0.,12.0,0.,12.0,0.,12.0
1989-08-24T04:07:49.620 ,0,0,0.,12.0,0.,12.0,0.,12.0,0.,12.0
1989-08-24T04:08:01.620 ,0,1,0.,12.0,0.,12.0,0.,12.0,0.,12.0
1989-08-24T04:08:13.620 ,0,1,0.,12.0,0.,12.0,0.,12.0,0.,12.0
1989-08-24T04:08:25.620 ,0,0,0.,12.0,1.,12.0,0.,12.0,0.,12.0
1989-08-24T04:08:37.620 ,0,0,0.,12.0,0.,12.0,0.,12.0,0.,12.0
1989-08-24T04:08:49.620 ,1,1,0.,12.0,0.,12.0,0.,12.0,0.,12.0
1989-08-24T04:09:01.620 ,1,1,0.,12.0,0.,12.0,0.,12.0,0.,12.0
1989-08-24T04:09:13.620 ,1,0,0.,12.0,0.,12.0,0.,12.0,0.,12.0
1989-08-24T04:09:25.620 ,1,0,0.,12.0,0.,12.0,0.,12.0,0.,12.0
1989-08-24T04:09:37.620 ,2,1,0.,12.0,0.,12.0,0.,12.0,0.,12.0
1989-08-24T04:09:49.620 ,2,1,0.,12.0,0.,12.0,0.,12.0,0.,12.0
1989-08-24T04:10:01.620 ,2,0,0.,12.0,0.,12.0,0.,12.0,0.,12.0
1989-08-24T04:10:13.620 ,2,0,0.,12.0,0.,12.0,0.,12.0,0.,12.0
1989-08-24T04:10:25.620 ,3,1,0.,12.0,0.,12.0,0.,12.0,0.,12.0
1989-08-24T04:10:37.620 ,3,1,0.,12.0,0.,12.0,0.,12.0,0.,12.0
1989-08-24T04:10:49.620 ,3,0,0.,12.0,0.,12.0,0.,12.0,0.,12.0
1989-08-24T04:11:01.620 ,3,0,0.,12.0,0.,12.0,0.,12.0,0.,12.0
1989-08-24T04:11:13.620 ,4,1,0.,12.0,0.,12.0,0.,12.0,0.,12.0
1989-08-24T04:11:25.620 ,4,1,0.,12.0,0.,12.0,0.,12.0,0.,12.0
1989-08-24T04:11:37.620 ,4,0,0.,12.0,0.,12.0,0.,12.0,0.,12.0
1989-08-24T04:11:49.620 ,4,0,0.,12.0,0.,12.0,0.,12.0,0.,12.0
1989-08-24T04:12:01.620 ,5,1,0.,12.0,0.,12.0,0.,12.0,0.,12.0
1989-08-24T04:12:13.620 ,5,1,0.,12.0,0.,12.0,0.,12.0,0.,12.0
1989-08-24T04:12:25.620 ,5,0,0.,12.0,0.,12.0,0.,12.0,0.,12.0
1989-08-24T04:12:37.620 ,5,0,0.,12.0,0.,12.0,0.,12.0,0.,12.0
1989-08-24T04:12:49.620 ,6,1,0.,12.0,0.,12.0,0.,12.0,0.,12.0
1989-08-24T04:13:01.620 ,6,1,0.,12.0,0.,12.0,0.,12.0,0.,12.0
1989-08-24T04:13:13.620 ,6,0,0.,12.0,0.,12.0,0.,12.0,0.,12.0
1989-08-24T04:13:25.620 ,6,0,0.,12.0,0.,12.0,0.,12.0,0.,12.0
1989-08-24T04:13:37.620 ,7,1,0.,12.0,0.,12.0,0.,12.0,0.,12.0
1989-08-24T04:13:49.620 ,7,1,0.,12.0,0.,12.0,0.,12.0,0.,12.0
1989-08-24T04:14:01.620 ,7,0,0.,12.0,0.,12.0,0.,12.0,0.,12.0
1989-08-24T04:14:13.620 ,7,0,0.,12.0,0.,12.0,0.,12.0,0.,12.0
1989-08-24T04:14:25.620 ,7,1,0.,12.0,0.,12.0,0.,12.0,0.,12.0
1989-08-24T04:14:37.620 ,7,1,0.,12.0,0.,12.0,0.,12.0,0.,12.0
1989-08-24T04:14:49.620 ,7,0,0.,12.0,0.,12.0,0.,12.0,0.,12.0
1989-08-24T04:15:01.620 ,7,0,0.,12.0,0.,12.0,0.,12.0,0.,12.0
1989-08-24T04:15:13.620 ,6,1,0.,12.0,0.,12.0,0.,12.0,0.,12.0
1989-08-24T04:15:25.620 ,6,1,0.,12.0,0.,12.0,0.,12.0,0.,12.0
1989-08-24T04:15:37.620 ,6,0,0.,12.0,0.,12.0,0.,12.0,0.,12.0